Powrót do katalogu

CZ-6A DEB

AktywnyPO
NORAD 54922·DEBRIS·🇨🇳 China

Wystrzelony Nov 11, 2022 z Taiyuan Satellite Launch Center

Loading…

Następne Przeloty (najbliższe 24 godziny)

TLE

ŚwieżeSource: Space-Track

Epoka: Sep 13, 2026, 18:15 UTC

1 54922U 22151RK  26256.76077117  .00353891  00000-0  66210-2 0  9996
2 54922  98.6106 358.1615 0020988 265.1791  94.7059 15.47179614201823

Śledź CZ-6A DEB w czasie rzeczywistym z AllMySat

Download on the App Store